This is the latest recevied weather packets stored in our database for station/object DL9CN-10. If no packets are shown the sender has not sent any weather packets the latest 10 day(s).
| Time | Temp. | Humidity | Pressure | Rain* | Wind** | Luminosity | Snow |
|---|---|---|---|---|---|---|---|
| 1777551763 | 19.44° C | 33% | 1025.4 hPa | - | - | - | - |
| 1777550862 | 19.44° C | 33% | 1025.5 hPa | - | - | - | - |
| 1777549962 | 18.89° C | 33% | 1025.6 hPa | - | - | - | - |
| 1777549062 | 18.89° C | 33% | 1025.7 hPa | - | - | - | - |
| 1777548162 | 18.33° C | 33% | 1025.8 hPa | - | - | - | - |
| 1777547261 | 18.33° C | 33% | 1025.9 hPa | - | - | - | - |
| 1777546361 | 17.78° C | 33% | 1025.9 hPa | - | - | - | - |
| 1777545461 | 17.78° C | 34% | 1026 hPa | - | - | - | - |
| 1777544564 | 17.22° C | 34% | 1026 hPa | - | - | - | - |
| 1777543664 | 17.22° C | 34% | 1026 hPa | - | - | - | - |
| 1777542764 | 16.67° C | 34% | 1026.3 hPa | - | - | - | - |
| 1777541864 | 16.11° C | 34% | 1026.4 hPa | - | - | - | - |
| 1777540964 | 16.11° C | 33% | 1026.5 hPa | - | - | - | - |
| 1777540064 | 15.56° C | 33% | 1026.6 hPa | - | - | - | - |
| 1777539164 | 15.56° C | 33% | 1026.6 hPa | - | - | - | - |
| 1777538263 | 15° C | 33% | 1026.6 hPa | - | - | - | - |
| 1777537363 | 15° C | 33% | 1026.7 hPa | - | - | - | - |
| 1777536463 | 15° C | 33% | 1026.8 hPa | - | - | - | - |
| 1777535563 | 14.44° C | 33% | 1026.8 hPa | - | - | - | - |
| 1777534663 | 14.44° C | 33% | 1026.7 hPa | - | - | - | - |
| 1777533763 | 14.44° C | 33% | 1026.5 hPa | - | - | - | - |
| 1777532862 | 13.89° C | 33% | 1026.6 hPa | - | - | - | - |
| 1777531962 | 13.89° C | 32% | 1026.5 hPa | - | - | - | - |
| 1777531062 | 13.33° C | 32% | 1026.4 hPa | - | - | - | - |
| 1777530162 | 13.33° C | 32% | 1026.3 hPa | - | - | - | - |
* Rain since midnight (hover to see other rain measurements)
** Current wind speed in m/s (hover to see current wind gust speed)